RH
65 65 80 74 74 84 74 81 90 87 72 63 74 83 83 89 91 72 51 41 54 61 59 53 44 35 35 30 37 34 29 24 24 31 27 21 20 21 26 21 22 28 29 29 26 21 19
63 64 62 62 58 60 60 70 78 81 74 76 84 90 97 78 55 52 37 49 53 53 44 33 35 33 32 40 37 31 27 24 23 30 22 20 19 18 19 21 23 25 24 24 20 19 23
65 64 65 65 62 52 51 60 67 68 70 76 79 74 69 70 46 50 46 48 50 38 34 36 34 33 31 43 35 27 26 23 21 23 20 19 18 17 17 19 19 18 18 20 22 24 26
48 54 66 67 64 61 45 44 48 53 63 65 65 69 65 63 55 49 50 43 39 37 36 36 30 27 42 37 32 27 22 22 20 17 16 18 15 14 16 19 21 22 23 18 26 28 29
46 44 44 45 43 39 34 36 41 43 45 44 48 53 57 52 50 49 45 38 34 34 35 36 35 26 35 27 29 25 19 17 16 15 14 13 12 26 28 35 36 39 19 24 24 35 38
38 37 41 37 33 31 31 32 33 34 37 37 33 33 35 36 38 37 36 39 42 37 38 37 38 25 31 34 22 21 19 16 19 18 17 24 34 49 57 47 25 35 29 26 25 39 40
33 33 31 30 36 34 30 28 27 27 29 34 31 33 36 36 40 42 40 35 38 38 37 45 45 46 45 33 25 24 23 25 25 23 29 46 64 56 46 44 36 36 35 35 31 43 45
32 32 32 30 27 26 27 27 25 24 24 25 29 32 32 32 32 31 41 45 43 41 45 42 46 47 45 36 22 29 27 26 25 41 42 51 60 50 48 42 37 38 38 36 40 47 49
55 52 47 44 32 23 22 22 22 22 22 22 26 29 29 30 32 31 34 35 38 40 38 40 40 40 42 32 39 32 34 36 45 58 63 48 52 46 46 43 40 50 42 49 53 63 48
64 64 61 58 59 51 23 20 20 20 20 21 23 23 25 26 25 28 26 26 26 34 65 41 42 39 45 45 40 40 39 39 45 55 54 54 47 48 48 49 44 39 54 55 59 66 41
50 47 46 44 42 48 48 24 19 20 20 22 23 23 23 22 21 24 27 29 27 44 50 30 42 43 46 43 42 37 44 35 45 49 42 49 51 52 52 54 47 48 55 56 59 80 80
50 54 58 58 55 46 40 45 22 18 21 23 22 25 26 23 23 23 25 26 41 64 36 49 41 42 42 42 44 40 36 41 45 55 56 55 50 54 52 48 50 58 60 70 80 89 70
56 58 59 60 61 57 51 37 38 17 19 21 21 20 28 27 28 26 27 39 64 59 36 46 48 41 42 46 41 39 41 44 56 47 62 65 64 57 54 60 58 57 65 56 51 75 57
60 59 59 59 56 54 55 48 36 27 16 19 21 24 28 29 29 28 32 40 44 40 41 40 44 40 45 43 39 40 42 51 42 60 87 69 47 64 58 58 67 58 56 62 21 55 58
62 61 61 59 57 53 48 50 42 34 21 16 19 21 25 27 28 31 45 77 57 44 39 45 43 44 43 41 38 38 43 50 47 43 45 52 52 56 57 59 56 61 76 56 54 62 73
59 59 58 58 58 53 43 44 45 35 21 17 19 23 22 26 37 44 58 70 52 50 52 44 41 38 42 41 41 36 42 46 49 43 42 40 33 54 63 56 62 60 56 65 82 31 53
52 52 50 50 54 53 45 37 40 39 30 27 33 24 25 36 41 29 81 68 55 50 51 44 43 36 35 35 32 30 47 47 44 44 41 39 37 42 56 68 65 70 65 63 63 66 46
38 43 43 40 37 39 42 38 43 38 35 28 26 35 31 40 41 68 72 53 50 50 47 46 44 40 37 34 31 34 40 47 46 43 45 49 52 66 51 52 53 52 51 54 60 38 58
29 32 36 41 40 36 35 33 43 41 36 34 38 50 32 33 66 72 55 52 54 48 45 43 44 42 37 37 34 34 47 45 47 48 48 47 46 59 42 51 48 48 50 56 60 71 66
22 26 35 44 43 40 27 26 36 38 37 37 46 68 40 30 42 54 50 52 51 50 47 44 43 42 38 38 38 40 43 48 49 52 46 44 54 35 37 36 46 53 52 57 60 84 65
21 20 19 35 48 39 40 33 38 38 38 39 42 59 54 72 52 44 40 39 52 52 50 48 46 43 38 38 37 37 37 52 54 55 54 55 54 64 60 55 53 56 52 53 72 56 49
24 22 21 25 43 42 48 46 42 44 42 39 48 57 54 53 52 46 46 40 38 40 43 45 49 39 42 37 32 36 38 38 40 65 64 64 56 62 66 56 62 69 61 57 52 50 58
24 23 24 30 41 51 54 62 55 47 48 58 59 60 62 64 60 59 50 38 42 39 40 40 40 42 40 39 43 42 42 40 42 61 72 72 72 75 79 66 68 67 58 63 59 55 48
38 28 24 46 46 58 71 67 63 61 59 61 63 62 62 70 64 61 50 47 46 45 47 42 41 44 47 47 48 50 51 50 52 52 55 75 72 75 86 71 75 44 34 38 51 48 48
60 55 34 31 62 56 70 79 74 69 72 71 69 63 64 80 72 56 52 55 52 55 51 47 46 44 46 49 63 70 69 51 55 59 60 55 70 76 82 87 66 44 36 37 37 36 37
75 81 64 44 56 70 67 73 80 71 75 84 78 72 66 73 70 62 56 56 67 70 64 52 53 52 51 65 72 71 74 66 64 69 61 62 59 66 86 88 81 44 33 31 30 46 43
98 92 88 75 57 73 81 82 82 80 74 88 90 83 73 71 68 65 62 69 61 59 68 58 54 56 57 81 83 87 81 57 66 72 80 81 79 74 78 92 80 52 39 32 50 48 40
93 98 98 96 94 76 84 86 87 82 90 95 91 87 87 77 73 72 73 69 63 60 66 58 64 70 77 82 87 82 87 70 62 61 74 78 88 92 88 95 93 46 37 44 43 38 38
91 96 99 99 100 92 86 87 93 100 100 98 96 92 87 86 76 73 72 72 71 70 69 67 67 69 65 79 84 87 86 80 70 75 60 68 58 72 69 70 46 40 39 40 41 51 51
Wind_Speed
36 35 33 33 32 29 31 28 21 17 16 17 18 18 17 16 17 16 18 18 16 22 24 22 14 8 9 8 6 6 10 12 13 13 13 11 7 3 5 6 5 4 3 4 2 1 1
33 33 32 33 34 33 31 34 33 25 23 22 18 20 20 17 14 19 19 18 21 21 21 13 8 4 7 7 8 8 10 11 13 14 13 7 6 9 8 4 4 4 6 5 2 2 3
27 28 27 27 28 28 27 26 26 25 22 22 21 16 14 16 16 17 18 18 16 17 11 11 11 13 15 8 9 11 9 11 12 13 12 9 10 3 5 4 5 6 4 2 1 2 3
21 21 21 23 23 25 26 25 22 20 18 19 19 19 17 16 19 18 16 16 14 8 12 10 9 5 8 10 9 10 11 11 11 11 10 11 9 11 5 8 5 4 4 3 1 3 2
18 18 16 16 17 20 22 22 20 20 18 17 16 14 16 17 18 16 15 11 10 11 8 7 6 6 5 9 8 8 10 13 14 12 12 10 6 6 5 5 4 6 2 2 0 1 3
17 17 16 15 15 16 18 19 20 19 19 17 17 17 18 19 17 14 14 15 10 9 10 11 7 8 5 4 8 9 10 10 8 12 9 4 5 4 5 5 4 3 1 2 2 3 2
16 15 15 16 17 17 17 17 17 17 16 15 17 19 21 17 13 8 7 10 2 6 22 10 9 16 11 10 9 8 9 9 6 6 3 6 7 3 3 1 3 4 2 2 3 2 4
17 17 17 16 15 16 15 15 14 14 15 13 9 5 0 4 3 1 1 3 5 10 13 15 15 15 12 7 5 7 5 3 3 4 2 6 3 2 1 2 3 3 1 3 4 3 4
20 20 20 20 18 16 15 13 12 11 11 11 10 11 11 13 12 10 13 15 12 6 6 9 13 8 7 7 6 8 5 4 5 5 5 6 3 0 1 4 3 3 1 0 1 8 2
22 22 22 23 22 19 16 13 11 9 8 8 6 4 5 6 6 7 6 5 3 1 5 10 8 6 6 4 6 9 6 3 6 4 3 5 1 2 2 3 1 1 3 3 3 4 2
22 23 24 26 27 24 20 15 10 8 6 6 5 2 2 3 2 1 1 1 2 1 5 6 5 4 6 6 1 8 8 5 3 3 4 2 2 2 2 2 2 1 3 0 1 2 3
22 23 24 26 27 28 25 21 12 7 6 6 7 4 2 1 1 2 2 1 1 6 1 6 4 4 4 6 3 3 5 6 4 5 6 2 1 2 1 2 3 4 4 5 4 3 2
20 21 22 24 26 28 28 26 18 9 5 5 5 7 3 2 2 2 2 2 5 6 3 3 3 4 4 4 4 3 4 4 2 5 3 5 3 2 2 3 3 5 5 3 5 3 5
17 19 20 22 24 26 28 27 24 11 6 4 6 9 6 2 1 1 1 5 8 3 3 1 1 2 2 3 3 3 2 3 6 5 3 4 6 2 1 1 4 2 5 4 5 1 5
16 17 19 22 24 26 27 27 26 18 6 3 3 15 13 7 3 2 2 6 6 4 1 2 1 2 2 2 1 2 2 2 1 2 4 3 2 0 2 1 2 1 1 2 5 2 2
13 15 17 19 21 24 26 28 26 22 9 4 1 3 15 7 5 4 5 3 2 1 1 1 2 2 3 2 2 2 1 1 2 1 1 2 1 1 0 2 2 1 2 2 3 1 4
11 13 15 17 19 21 24 27 26 24 11 6 2 3 12 5 5 6 4 3 1 1 2 2 1 2 2 2 2 2 2 2 1 1 2 2 3 3 3 3 5 1 2 1 3 4 3
9 11 13 14 16 18 21 24 26 24 18 5 4 4 13 3 5 4 2 1 2 1 2 2 2 2 1 1 2 2 3 2 2 2 2 1 4 3 6 2 3 4 5 4 4 3 2
10 11 13 15 15 17 19 22 23 23 21 9 3 3 12 5 3 2 1 2 2 1 1 1 1 1 0 2 2 2 3 1 1 2 5 3 0 2 6 4 2 4 4 4 4 3 6
11 12 13 14 17 18 18 18 19 21 21 10 3 3 6 9 6 5 3 2 1 1 1 1 1 1 1 1 2 4 4 3 2 3 4 3 3 5 6 4 3 3 4 5 5 3 4
12 14 15 14 16 18 19 17 16 17 17 8 7 4 4 3 4 4 3 1 2 0 0 1 1 2 2 3 2 3 3 2 1 4 3 4 4 4 6 8 5 7 9 9 10 9 7
11 11 13 13 14 16 16 17 16 16 14 16 5 5 4 2 5 1 3 1 1 0 2 1 1 1 3 3 5 6 5 4 5 2 4 1 2 1 5 5 5 7 15 14 17 16 13
12 10 10 10 11 13 14 14 15 15 15 9 9 6 3 5 4 2 2 2 4 3 2 2 3 1 2 3 3 5 5 3 3 7 6 4 4 2 5 3 7 8 8 12 6 6 11
12 12 10 8 8 10 11 11 14 15 14 10 10 6 3 2 2 3 3 2 2 3 4 4 3 3 3 3 10 9 9 9 7 9 8 5 4 3 4 4 2 5 2 5 11 6 12
13 13 12 11 9 9 11 12 11 12 11 8 5 4 2 1 1 2 7 5 6 6 3 3 5 4 3 3 2 3 2 2 1 1 4 5 4 2 2 3 7 8 2 3 5 5 3
15 15 14 13 12 12 11 12 13 12 10 9 5 3 1 0 2 1 1 0 1 3 6 4 3 4 2 2 2 4 5 5 4 2 2 3 2 3 0 3 5 3 1 2 1 5 4
19 17 17 15 15 14 14 14 14 13 12 8 9 5 3 3 4 3 3 2 2 2 2 4 4 2 2 1 2 4 4 2 3 5 5 3 1 9 6 4 8 7 7 2 2 4 3
23 21 19 18 17 16 16 17 17 14 12 11 11 10 7 6 10 10 8 5 4 3 2 1 2 2 2 2 3 3 3 3 2 4 6 7 7 4 3 4 9 5 3 5 3 3 5
25 25 24 23 22 20 18 18 20 18 15 13 16 14 12 10 8 10 12 14 17 14 9 4 3 1 5 1 2 2 3 1 2 3 2 2 6 4 10 7 5 9 2 2 4 10 13
Wind_Direction
54 52 55 55 52 50 49 45 63 68 73 74 77 92 95 112 117 112 118 110 132 124 127 132 130 111 124 101 81 120 130 140 149 154 158 143 122 115 121 110 103 86 132 101 127 97 23
49 50 59 57 53 52 53 53 50 58 71 77 88 91 106 94 95 105 104 112 122 118 121 110 76 111 127 81 100 100 127 141 151 163 155 146 123 109 98 77 80 118 118 113 57 347 332
49 50 57 54 50 52 51 52 58 62 68 68 68 79 123 88 96 101 104 119 121 124 113 97 81 104 103 83 103 98 116 136 150 157 150 131 121 124 109 91 98 113 81 58 357 338 326
46 44 52 45 40 47 44 44 53 64 68 75 69 77 110 101 111 119 119 123 127 122 117 84 76 103 78 87 113 99 102 124 135 148 150 129 113 99 69 113 53 63 49 47 318 351 327
41 47 43 37 31 28 35 41 46 50 55 67 70 88 106 109 105 107 114 115 116 124 104 82 83 95 78 88 106 111 108 114 118 125 124 124 114 82 81 79 32 14 175 180 319 52 331
36 33 34 33 32 31 30 37 41 48 55 64 84 96 100 100 104 109 113 101 95 114 105 93 85 88 62 69 87 100 114 115 111 116 103 82 62 71 34 66 201 179 80 319 277 12 330
32 32 28 22 17 18 23 29 39 43 53 66 78 104 108 100 112 122 115 127 122 76 66 67 77 88 83 85 87 90 109 99 89 69 74 30 68 113 147 88 127 112 108 278 272 67 328
32 33 31 26 19 13 14 20 28 40 48 57 74 107 80 328 334 66 115 126 122 123 72 67 77 77 65 68 89 71 73 86 61 81 32 29 88 204 304 42 88 88 89 285 286 12 0
41 37 36 33 26 21 16 14 18 26 40 57 67 67 66 65 79 108 110 110 113 118 89 41 42 45 39 56 53 22 43 74 81 52 22 116 165 264 75 51 94 48 144 56 248 330 338
49 43 39 36 32 29 25 19 17 17 26 36 57 80 78 79 80 108 100 105 110 124 81 335 354 26 22 22 50 39 44 63 40 135 96 83 308 55 79 92 119 64 79 59 359 36 264
50 48 41 38 34 31 29 27 23 25 24 31 30 47 102 114 118 295 40 39 35 156 66 309 336 25 24 66 78 26 38 51 80 86 89 216 97 83 92 73 41 92 51 326 164 94 43
47 44 41 38 33 31 29 26 23 36 43 41 27 17 304 278 236 209 285 2 110 41 276 337 329 10 41 31 38 43 56 65 98 75 39 96 44 49 74 54 58 67 71 32 47 92 29
40 39 37 33 32 30 27 25 25 32 47 51 40 21 5 278 273 283 313 336 37 87 274 314 19 19 56 7 27 39 36 22 61 63 353 10 8 7 45 52 35 70 65 327 350 10 214
36 31 30 28 29 28 26 25 23 24 31 48 60 31 37 38 277 207 341 47 69 192 211 258 11 31 84 11 15 33 66 39 27 71 90 133 320 184 167 202 183 162 149 156 221 264 273
27 24 23 21 21 21 24 25 20 21 27 57 104 37 37 41 65 77 346 51 178 203 249 131 44 82 353 355 122 61 69 132 65 48 144 156 274 291 78 39 110 148 29 167 102 334 27
18 17 16 16 16 15 16 18 22 20 30 41 132 7 26 51 51 15 69 133 143 264 10 152 121 174 160 204 129 134 179 284 137 84 51 193 99 189 115 82 27 118 168 57 0 118 288
8 8 10 11 12 13 13 11 17 18 30 47 57 69 15 18 21 45 101 182 136 39 41 62 130 103 103 133 103 46 34 347 76 149 76 115 96 312 40 195 189 87 253 91 123 145 185
355 359 4 8 10 8 10 11 9 15 16 42 46 51 6 18 44 43 83 63 122 59 24 34 86 72 91 57 79 121 186 237 14 104 112 31 138 224 222 244 215 196 193 152 120 215 216
338 346 354 1 8 11 9 9 9 7 11 17 48 50 26 45 86 34 357 52 61 117 58 45 121 35 159 139 131 151 156 209 190 119 168 173 250 355 343 349 339 230 209 168 109 77 213
333 334 341 350 356 7 11 13 14 7 8 16 30 24 36 53 79 119 125 118 59 15 344 355 153 125 107 144 358 183 183 221 188 152 151 140 169 187 196 209 159 222 222 198 156 152 205
332 334 335 340 346 354 6 12 21 23 15 20 36 51 17 339 11 92 121 128 132 253 303 324 332 242 182 170 166 220 183 174 204 185 159 137 220 189 252 240 240 238 233 210 200 207 206
314 324 328 331 337 349 359 8 13 30 34 41 53 15 357 344 320 16 353 106 117 346 158 270 230 281 219 214 197 219 171 195 205 200 173 177 264 56 287 272 230 259 248 234 233 236 249
303 308 316 320 326 341 346 2 10 17 27 43 34 23 17 2 357 48 277 212 161 150 170 170 198 47 268 266 268 281 262 270 240 164 192 167 164 103 264 341 319 286 242 196 192 210 214
301 300 299 302 305 320 335 343 357 8 24 40 23 14 17 306 44 331 314 299 249 193 173 189 182 174 199 280 299 275 260 254 235 235 195 158 152 162 270 349 265 254 263 181 203 213 217
288 296 290 280 283 292 310 323 330 341 1 15 29 32 24 281 221 55 346 314 312 304 252 238 221 219 254 310 40 347 315 326 210 61 196 190 145 247 241 226 294 299 116 145 179 287 241
283 289 289 279 268 274 285 296 309 318 327 347 357 9 12 265 237 290 231 131 294 326 329 293 258 239 234 105 109 204 222 227 219 201 32 115 111 161 128 242 248 270 197 139 117 281 16
279 278 279 279 275 270 281 289 290 299 311 320 322 327 293 239 230 212 192 181 229 191 219 290 312 291 227 94 181 195 242 217 229 188 166 144 171 213 219 257 280 255 245 167 117 259 181
262 268 270 268 273 270 274 280 288 284 290 300 298 310 293 274 269 265 236 227 193 217 186 237 337 234 53 191 197 240 222 244 236 176 178 171 160 198 155 217 274 227 115 183 228 169 313
253 251 254 264 264 265 266 270 279 287 277 269 279 294 285 258 272 271 270 266 262 256 240 213 256 201 213 147 249 323 282 290 216 262 124 236 200 188 189 215 281 212 120 352 307 351 329